weather.gov     
National Weather Service

Regional Weather Roundup
NWS Homepage
This page is being discontinued on March 12, 2014.
The same data is available at this site. Please update your bookmarks.
Thank you, and we apologize for the inconvenience.
Please send an email to SR-SRH.Webmaster@noaa.gov with any concerns.


Current Version
Previous Version:    01  02  03  04  05  06  07  08  09  10  11  12  13  14  15  16  17  18  19  20  21  22  23  24  25  26  
[Printable]
695
ASUS41 KGYX 011205
RWRGYX
WEATHER ROUNDUP FOR MAINE AND NEW HAMPSHIRE
NATIONAL WEATHER SERVICE GRAY ME
800 AM EDT MON SEP 01 2014

MEZ002-005-006-010-012-015-018-020-021-024-026-027-029-011300-
MAINE

CITY           SKY/WX    TMP DP  RH WIND       PRES   REMARKS
PORTLAND       FOG       70  68  93 W3        29.96S VSB 1
6HR MIN TEMP:  67; 6HR MAX TEMP:  70;

SANFORD        SUNNY     73  66  78 W3        29.97S
BAR HARBOR     CLOUDY    66  66 100 CALM      29.95S VSB 1/4
WISCASSET      FOG       69  68  96 W3        29.96S VSB 1/4
6HR MIN TEMP:  68; 6HR MAX TEMP:  69;

ROCKLAND       CLOUDY    68  68 100 CALM      29.93F VSB 1/2
FRYEBURG       SUNNY     70  67  90 CALM      29.98S
6HR MIN TEMP:  63; 6HR MAX TEMP:  70;

LEWISTONAUBURN CLOUDY    70  64  83 W3        29.97S
AUGUSTA        CLOUDY    70  69  97 SW3       29.96S FOG
6HR MIN TEMP:  68; 6HR MAX TEMP:  70;

WATERVILLE     CLOUDY    70  66  88 CALM      29.92S VSB 1
BANGOR         CLOUDY    70  68  93 SW3       29.95S FOG
6HR MIN TEMP:  68; 6HR MAX TEMP:  70;

GREENVILLE       N/A     69  65  86 CALM      29.96R
6HR MIN TEMP:  63; 6HR MAX TEMP:  69;

MILLINOCKET    SUNNY     72  66  81 CALM      29.94S
6HR MIN TEMP:  66; 6HR MAX TEMP:  72;

HOULTON        PTSUNNY   70  67  90 CALM      29.92S
6HR MIN TEMP:  65; 6HR MAX TEMP:  71;

PRESQUE ISLE   CLOUDY    66  61  82 N5        29.93S
6HR MIN TEMP:  64; 6HR MAX TEMP:  70;

FRENCHVILLE    CLOUDY    62  60  93 VRB3      29.95S
6HR MIN TEMP:  61; 6HR MAX TEMP:  64; 6HR PCP: TRACE;

CARIBOU        CLOUDY    65  62  90 N7        29.93S
6HR MIN TEMP:  65; 6HR MAX TEMP:  69;

$$

NHZ002-005-008-009-011-012-014-011300-
NEW HAMPSHIRE

CITY           SKY/WX    TMP DP  RH WIND       PRES   REMARKS
PORTSMOUTH     MOSUNNY   73  70  91 W6        29.96S
ROCHESTER      SUNNY     72  68  87 VRB5      29.97S
6HR MIN TEMP:  70; 6HR MAX TEMP:  72;

NASHUA         MOSUNNY   72  71  96 CALM      29.99S
MANCHESTER     MOSUNNY   72  69  90 S5        29.97S
6HR MIN TEMP:  69; 6HR MAX TEMP:  72;

CONCORD        FOG       68  68 100 CALM      29.99S VSB 1/4
6HR MIN TEMP:  64; 6HR MAX TEMP:  69;

LACONIA        SUNNY     70  66  88 CALM      29.98S
PLYMOUTH       FOG       65  65 100 CALM      29.99S VSB 1/4
BERLIN         NOT AVBL
WHITEFIELD     FOG       65  63  93 CALM      30.01R VSB 1/4
6HR MIN TEMP:  60; 6HR MAX TEMP:  65;

JAFFREY        NOT AVBL
LEBANON        FOG       66  64  93 CALM      29.99S VSB<1/4
6HR MIN TEMP:  63; 6HR MAX TEMP:  67;

MT WASHINGTON  FOG       50  50 100 NW35        N/A  VSB 0
                   6HR MAX TEMP:  54;

$$

VTZ005-007-008-011300-
VERMONT

CITY           SKY/WX    TMP DP  RH WIND       PRES   REMARKS
ST JOHNSBURY     N/A     66  65  96 MISG      29.98R
MONTPELIER     FOG       62  62 100 CALM      30.03S VSB 1/2
BURLINGTON     PTSUNNY   71  67  87 SW7       29.97R
$$

MAZ007-012-024-CTZ003-RIZ002-NYZ038-NYZ072-011300-
SOUTHERN NEW ENGLAND AND NY

CITY           SKY/WX    TMP DP  RH WIND       PRES   REMARKS
BOSTON         PTSUNNY   73  70  90 SW8       29.98S
WORCESTER      PTSUNNY   70  68  93 W8        30.03S
NANTUCKET      CLOUDY    71  69  93 SW12      30.03S FOG
PROVIDENCE     CLOUDY    74  71  91 CALM      30.00S FOG
HARTFORD       PTSUNNY   72  69  90 CALM      29.99S
ALBANY         PTSUNNY   71  69  93 S3        30.01S FOG
NEW YORK CITY  CLOUDY    77  71  82 SW5       30.00S
$$

ANZ081-ANZ082-ANZ150-NHZ014-MEZ023>029-011300-
COASTAL MARINE OBSERVATIONS

STATION/POSITION TIME  TEMP    WIND        PRES    WAVE
                       AIR SEA DIR/SP/G            HT/PER
                 (UTC) (F)     (DEG/KT/KT) (MB)    (FT/S)
MATINICUS ROCK   1100          200/  7/  7 1013.9R
PORTLAND WX BUOY 1150   64 61  190/  4/  6 1014.4R   2/ 6
WELLS            1100   71 58  280/  3/  6 1013.4R
ISLE OF SHOALS   1100   70     260/ 11/ 11 1014.1R
JEFFREYS LEDGE   1121      64                N/A     2/ 9
CASHES LEDGE BUO 1150   65 63              1014.0R   3/ 6
$$

.............KEY..............
   WCI - WIND CHILL
   TC  - TEMPERATURE IN CELSIUS
   VSB - VISIBILITY IN MILES
   HX  - HEAT INDEX
   FAIR- INDICATES FEW OR NO CLOUDS BELOW 12,000 FT, WITH NO
         SIGNIFICANT WEATHER AND/OR OBSTRUCTIONS TO VISIBILITY.






U.S. Dept. of Commerce
NOAA National Weather Service
1325 East West Highway
Silver Spring, MD 20910
E-mail: w-nws.webmaster@noaa.gov
Page last modified: May 16, 2007
NATIONAL WEATHER SERVICE: for Safety, for Work, for Fun - FOR LIFE